Theta_e
320 320 319 319 320 320 319 319 320 320 320 320 319 319 319 320 321 321 310 316 321 340 337 330 331 337 342 336 339 338 325 320 318 320 321 330 330 336 337 330 331 336 332 338 342
321 320 320 319 320 320 320 320 321 320 319 319 319 319 319 321 320 312 325 326 336 343 325 328 326 328 332 331 335 331 329 321 326 325 323 327 332 333 331 328 331 334 338 340 341
320 320 320 320 320 320 320 319 319 320 319 319 319 319 321 325 321 315 335 338 342 334 321 328 328 325 323 328 329 331 325 326 326 327 329 329 331 334 330 327 330 332 335 339 340
321 320 320 320 320 320 321 320 320 318 318 319 319 320 323 326 308 322 341 343 345 323 318 324 325 320 320 322 331 326 331 329 329 329 330 328 331 331 331 333 335 337 338 339 339
321 320 320 320 320 321 320 320 319 318 317 319 320 322 325 321 319 336 342 343 323 317 316 323 322 318 317 326 329 329 329 330 332 330 327 328 325 330 330 336 337 338 338 338 339
321 321 321 320 320 320 320 319 317 317 317 319 321 323 325 314 334 335 322 324 319 317 315 322 320 318 320 326 327 331 331 330 331 330 328 324 326 330 333 337 336 336 336 337 338
321 321 320 320 320 320 319 317 316 317 317 320 323 326 323 318 332 332 327 321 321 319 315 322 320 316 326 326 335 332 327 330 330 330 327 331 323 324 335 336 334 334 336 337 339
319 321 320 320 319 318 317 316 317 318 318 321 323 327 319 330 333 324 323 320 320 320 318 321 320 318 332 335 331 326 326 320 327 330 328 327 315 329 332 331 333 333 335 336 339
319 320 320 319 318 317 315 316 319 320 322 324 328 324 316 325 324 324 317 316 318 319 318 318 317 324 330 326 322 323 317 317 321 330 328 325 318 327 333 333 333 333 333 335 338
319 319 319 318 317 315 314 317 322 324 326 327 326 319 319 314 320 322 322 316 313 313 313 312 315 319 322 318 306 313 313 314 316 327 328 324 321 326 330 332 332 331 333 334 336
319 318 318 317 315 313 316 326 322 320 322 317 318 316 318 322 322 320 321 318 316 314 309 311 309 310 315 318 317 317 315 309 317 326 325 323 323 326 328 332 331 333 333 334 335
319 318 317 315 314 313 317 319 317 316 312 318 317 318 321 321 313 317 322 313 311 307 309 307 306 312 312 318 317 314 310 310 319 326 325 323 322 327 330 329 330 331 331 331 335
319 318 316 314 313 315 318 319 321 319 313 316 318 318 319 321 314 314 318 313 308 307 306 305 308 310 309 310 312 313 310 308 310 319 325 322 320 324 329 332 334 335 336 334 333
319 317 314 311 314 321 317 322 321 319 310 312 314 317 320 320 313 319 319 314 308 305 306 306 310 306 307 309 312 310 314 311 312 314 309 321 307 320 327 329 330 333 335 333 334
318 316 313 310 318 318 318 322 320 319 300 313 314 323 321 315 315 314 319 314 307 306 306 304 305 304 303 307 311 309 313 310 311 315 313 314 310 317 324 323 329 332 333 336 337
316 314 312 316 319 321 322 321 319 307 298 310 314 313 312 314 313 314 313 316 313 309 309 309 312 310 308 308 311 314 314 315 316 314 305 311 310 309 315 322 327 331 334 335 337
313 311 311 319 319 321 321 318 305 299 311 309 309 312 311 310 310 312 310 308 306 303 304 307 308 311 311 307 309 309 310 303 302 303 302 312 308 310 319 324 327 329 332 335 338
310 308 313 319 323 322 319 311 299 303 307 313 311 311 308 311 310 310 309 307 310 308 306 302 300 307 311 311 306 309 309 304 298 299 302 311 303 312 322 327 329 331 333 335 337
309 322 321 324 322 322 312 302 303 305 308 310 310 308 308 310 310 310 309 308 309 310 304 303 303 310 310 312 314 310 307 313 307 307 303 306 309 314 323 324 327 327 329 331 335
316 317 317 321 322 318 307 301 307 309 311 311 307 309 307 308 308 308 309 311 309 312 314 309 304 309 310 312 312 311 313 306 307 298 298 303 304 307 316 321 324 325 325 327 331
316 313 319 323 317 312 304 306 308 311 312 309 308 307 308 307 309 308 308 311 313 312 314 312 309 307 311 308 307 308 307 307 308 306 299 298 303 316 315 322 324 325 325 329 333
315 311 322 324 308 310 306 307 303 309 313 310 309 309 307 308 308 309 308 311 315 313 309 313 310 306 306 314 315 312 309 310 303 304 305 304 304 321 323 325 326 324 326 330 331
312 312 324 319 304 304 307 306 308 307 308 307 306 309 310 308 306 309 309 313 313 313 312 314 308 303 305 310 313 309 311 311 310 309 306 303 308 322 325 325 325 324 327 329 332
312 309 317 319 317 309 308 306 305 310 308 309 307 310 309 308 311 308 308 312 313 313 321 317 310 307 302 306 310 308 310 312 309 305 306 307 308 317 321 323 324 326 330 330 332
316 311 312 310 311 309 309 308 306 305 311 313 309 309 308 305 306 307 310 312 313 316 314 314 308 310 310 310 310 310 309 310 309 309 306 308 308 313 320 323 325 327 330 329 330
310 310 315 309 307 307 303 307 306 307 309 308 308 309 310 308 308 307 309 312 311 315 313 314 309 311 308 309 309 307 309 310 310 310 310 310 311 319 323 325 326 326 328 328 329
317 317 311 305 306 305 306 305 305 307 310 311 311 310 309 311 314 316 317 316 316 312 312 312 310 309 304 309 308 304 308 309 311 313 312 308 314 323 321 322 326 326 328 329 331
Wind_Speed
13 13 12 12 12 12 11 10 10 10 10 10 10 9 9 9 13 7 8 3 1 10 5 9 8 5 5 2 1 2 4 3 1 6 6 5 7 6 8 11 7 4 8 20 20
14 14 14 14 13 13 13 12 11 9 9 9 9 8 8 8 7 10 4 4 3 9 10 11 8 6 4 1 1 4 2 4 3 5 6 5 4 7 8 11 10 11 17 20 19
15 15 14 15 14 13 13 12 11 10 10 9 8 8 7 10 8 4 10 8 5 6 6 5 4 5 3 3 2 2 4 3 6 7 9 5 6 3 5 8 7 12 19 19 17
16 15 15 15 15 15 14 13 10 10 9 8 7 7 8 8 2 6 9 9 5 6 8 7 6 6 2 1 3 0 4 2 9 9 8 5 2 5 1 7 3 12 18 18 17
16 17 16 16 16 16 15 13 12 9 9 8 8 6 8 8 7 6 10 9 10 7 9 8 7 4 2 2 3 4 6 7 7 9 8 7 4 3 3 3 8 16 15 16 14
17 17 16 17 17 16 15 14 11 9 8 8 7 7 7 4 2 6 10 10 8 9 7 7 2 3 1 1 3 4 8 10 8 8 6 4 2 5 3 9 13 16 15 14 13
18 18 18 17 18 18 17 14 11 8 7 7 6 6 7 8 2 6 9 10 6 6 7 3 2 8 2 6 7 11 9 8 7 7 7 12 7 6 4 9 14 15 14 13 12
20 19 19 19 20 19 18 15 11 8 7 7 6 6 3 4 5 7 6 7 6 4 3 0 4 2 4 8 6 3 5 4 8 8 6 9 5 6 4 2 12 15 13 13 13
21 20 19 19 19 18 17 14 6 6 6 7 7 6 7 4 7 9 7 8 9 6 2 2 5 3 6 11 9 5 2 5 8 6 9 9 6 9 9 12 12 14 14 13 13
22 21 20 20 19 17 13 6 8 11 6 6 5 7 6 5 9 9 5 11 9 10 6 7 8 10 9 10 4 2 7 3 2 10 9 9 5 8 8 10 8 10 14 13 13
23 22 21 21 17 16 7 5 8 8 9 9 3 3 4 9 10 9 10 9 8 12 11 9 10 12 12 10 7 4 3 4 4 5 6 5 6 11 11 12 14 14 14 14 14
24 22 22 23 22 9 7 6 6 7 7 7 7 6 4 4 10 10 10 11 11 14 6 9 13 10 5 2 8 6 2 5 4 4 6 2 6 9 13 15 15 16 15 10 13
23 21 22 22 20 4 6 2 3 7 8 7 7 7 9 12 8 14 15 6 12 13 13 15 4 3 7 8 10 10 6 2 7 4 8 4 8 9 12 10 15 16 16 13 14
20 18 19 26 7 5 3 5 6 5 7 12 10 9 9 9 7 6 15 9 7 11 10 10 12 7 11 14 12 13 4 3 2 8 1 7 1 8 11 12 14 14 15 15 14
20 17 15 8 11 5 6 4 5 5 7 12 9 7 11 10 14 9 11 9 8 10 9 7 10 14 13 18 15 10 3 3 6 11 6 10 7 9 5 9 14 15 15 16 16
20 17 16 5 5 7 7 7 5 9 7 10 10 13 14 12 8 12 13 8 3 6 11 9 2 7 13 12 14 10 6 4 7 9 10 10 7 9 6 1 5 4 9 12 13
22 20 10 4 3 5 6 6 8 9 5 10 12 13 17 12 11 14 15 16 11 12 12 14 13 9 8 10 11 14 14 9 9 9 3 3 6 7 6 4 2 3 4 4 8
24 21 7 5 5 7 6 9 11 2 7 3 4 11 14 12 13 13 12 13 16 11 3 10 14 14 13 14 12 18 16 9 8 9 6 6 7 3 5 5 3 3 1 2 5
26 2 3 1 4 5 9 13 5 8 2 6 9 11 16 10 8 12 15 13 12 16 10 8 4 7 6 7 8 13 11 10 11 5 8 5 6 8 9 7 7 5 2 1 3
8 4 3 5 6 7 10 15 7 4 4 7 11 6 15 17 14 11 13 12 13 14 17 2 4 6 7 9 5 11 4 9 9 13 9 7 7 7 10 10 9 6 3 2 1
6 5 5 1 5 7 11 14 11 6 5 4 5 6 9 5 15 13 8 8 13 13 15 11 8 10 10 12 14 9 11 8 10 5 9 10 7 4 2 5 10 6 3 2 2
5 4 3 2 7 4 10 6 2 9 9 6 6 8 7 5 9 11 13 15 14 11 12 18 10 12 12 5 4 7 9 11 10 12 9 10 8 5 6 5 7 5 1 1 3
7 4 2 4 6 8 4 9 9 9 9 7 9 6 4 9 6 9 6 3 8 14 9 10 11 8 11 11 7 10 11 11 9 7 9 9 2 6 9 7 6 4 3 4 2
5 3 4 3 1 6 3 8 9 6 12 10 13 12 10 12 10 6 6 2 6 16 5 7 16 13 9 7 8 14 10 13 14 11 9 9 7 11 8 9 9 7 5 3 1
2 4 4 1 4 6 5 3 6 8 7 6 8 12 12 14 14 14 14 11 6 4 6 15 14 14 13 4 6 10 11 14 15 15 10 5 3 2 7 9 10 8 8 6 4
6 5 2 6 5 7 4 5 9 8 6 10 11 5 6 10 11 9 3 9 12 9 12 13 12 10 12 9 10 10 10 11 14 12 9 6 9 3 5 5 9 11 9 8 4
2 2 6 2 5 6 3 3 4 3 7 10 8 8 10 9 7 13 13 14 15 10 14 14 12 12 16 12 10 12 14 15 14 11 14 11 5 8 7 8 10 11 9 7 5
Wind_Direction
360 353 348 342 337 333 330 328 323 325 323 322 324 324 321 318 294 220 233 62 145 157 216 158 190 173 205 133 208 242 261 172 164 154 117 121 133 103 103 137 105 43 134 134 145
352 348 345 343 339 334 329 327 322 322 321 322 322 321 310 317 257 237 105 99 199 165 192 186 183 201 189 166 93 288 342 45 42 151 130 129 132 99 143 148 139 94 107 134 151
354 349 346 343 338 333 331 328 323 320 318 322 318 314 303 294 234 108 120 150 158 215 239 230 219 242 249 252 62 14 23 83 93 99 136 127 118 73 160 176 149 138 141 149 161
347 346 343 339 333 332 330 325 322 316 315 312 308 302 298 244 156 68 132 140 176 232 206 196 208 236 244 29 69 189 72 88 125 123 123 100 50 122 163 56 111 142 151 154 165
345 340 335 334 332 327 327 323 318 311 303 299 291 292 260 211 85 93 135 149 172 199 212 203 223 268 331 77 114 76 98 103 125 112 80 95 53 66 206 182 138 143 157 160 167
341 335 331 331 331 327 325 322 313 298 288 281 281 284 253 200 65 138 169 171 198 213 195 216 303 344 345 62 336 102 106 121 124 121 103 111 205 247 147 149 144 157 165 162 163
339 334 331 331 330 328 326 317 305 290 271 260 259 267 252 63 120 157 181 203 188 237 200 168 317 254 195 128 122 134 122 131 134 129 129 168 200 190 107 155 157 167 169 161 169
341 333 331 330 329 328 325 312 296 263 242 238 232 251 48 109 135 164 177 180 200 192 290 18 271 261 273 117 143 214 208 135 128 153 149 206 159 130 116 244 172 171 173 172 178
340 333 331 330 330 328 321 310 283 192 198 192 227 260 115 147 194 165 184 177 167 176 179 273 247 232 178 207 177 190 69 88 142 191 158 207 121 158 168 205 195 182 179 184 181
339 333 331 331 331 332 326 297 131 158 194 222 261 234 166 125 138 156 158 155 160 162 177 211 217 212 222 236 7 105 148 122 98 179 199 188 151 153 183 203 217 207 187 190 193
339 332 330 330 331 328 278 202 208 177 202 281 80 355 127 118 154 178 169 178 158 194 195 203 219 218 210 231 27 167 360 26 82 146 209 211 183 173 177 186 212 212 200 196 205
338 330 328 329 331 315 263 276 46 8 291 204 236 245 228 191 175 159 182 198 193 198 192 189 229 218 2 285 246 265 215 100 98 140 222 150 208 183 176 194 201 202 215 213 229
335 329 328 328 326 246 307 334 86 328 258 160 187 207 181 200 197 172 199 188 203 214 209 238 196 65 226 214 242 246 254 105 347 165 216 247 199 190 194 202 202 215 217 222 195
331 328 329 326 288 348 231 127 305 273 263 144 188 174 173 211 194 163 202 192 198 221 217 242 251 223 233 230 230 249 216 233 191 228 211 215 160 170 180 200 209 217 216 211 224
327 327 325 326 319 253 53 307 309 233 260 138 137 115 155 205 124 177 185 197 205 178 209 163 199 210 228 226 218 256 354 270 231 229 233 173 252 111 176 207 206 212 216 215 211
322 323 326 192 226 289 297 293 231 229 234 159 147 179 178 201 166 142 183 226 324 210 219 278 135 229 234 215 219 229 221 217 210 241 233 144 280 161 153 119 125 189 213 225 230
319 317 297 285 357 336 294 215 221 247 127 165 182 178 199 178 170 176 189 200 213 205 203 197 207 212 219 196 203 210 218 204 215 195 231 123 232 85 129 168 162 151 181 217 232
317 315 160 270 303 301 243 214 234 288 221 96 196 189 205 186 209 198 192 211 213 248 256 206 170 194 188 234 184 209 226 239 211 221 213 137 239 110 129 153 164 165 190 235 244
308 281 222 202 261 226 224 215 218 237 275 219 179 213 203 200 247 207 219 215 200 209 239 188 172 142 202 196 250 167 233 290 281 198 284 264 157 205 169 192 188 192 206 274 342
314 289 57 2 194 209 221 232 233 277 282 232 239 218 219 194 200 204 187 210 211 208 234 113 189 194 150 185 197 277 262 218 232 270 244 191 232 272 185 197 181 187 157 67 66
263 264 78 243 238 204 220 230 250 226 267 271 240 242 247 212 223 197 206 201 204 193 210 233 259 137 172 208 195 185 218 229 298 301 272 254 238 121 247 174 181 157 136 47 22
295 251 72 239 217 214 229 237 350 248 206 249 279 281 258 199 221 233 227 234 188 166 193 217 231 181 203 114 308 277 257 200 229 184 235 304 296 115 117 142 155 144 152 100 351
319 308 146 259 252 207 199 251 254 257 231 235 244 235 280 249 244 223 229 274 196 203 204 175 231 205 202 181 189 227 212 235 277 311 273 275 95 128 130 153 158 169 163 162 323
287 265 149 206 313 287 275 240 248 201 262 266 251 251 242 244 233 260 239 196 261 231 66 223 246 228 255 230 196 198 214 222 235 251 267 221 282 157 167 185 177 172 167 161 13
265 66 10 326 145 310 260 299 256 242 218 232 228 245 250 244 246 245 250 263 214 158 228 225 234 234 254 280 230 240 237 206 238 258 268 341 275 44 177 192 188 169 164 163 126
319 330 304 285 274 268 180 238 260 245 258 224 237 180 248 253 262 302 333 279 258 182 216 226 243 197 225 219 231 243 248 251 235 246 253 253 259 53 121 153 171 175 175 183 171
36 229 283 183 257 255 263 282 287 326 258 266 296 286 258 272 334 309 292 278 273 292 224 223 218 206 230 198 226 242 246 236 239 226 233 234 263 135 168 183 180 183 190 204 197